Change the Weather History Date:

Saturday, December 7, 2013

  Actual Average Record
Temperature  
Mean Temperature 25 °F 50 °F  
Max Temperature 27 °F 61 °F 83 °F (1939)
Min Temperature 23 °F 39 °F 15 °F (1950)
Degree Days  
Heating Degree Days 40 15  
Month to date heating degree days 118 102  
Since 1 July heating degree days 532 430  
Cooling Degree Days 0 0  
Month to date cooling degree days 0 0  
Year to date cooling degree days 2870 2792  
Moisture  
Dew Point 21 °F    
Average Humidity 91    
Maximum Humidity 100    
Minimum Humidity 81    
Precipitation  
Precipitation T in 0.09 in 2.43 in (1960)
Month to date precipitation 0.24 0.60  
Year to date precipitation 36.79 32.54  
Snow  
Snow T in 0.00 in T in (2013)
Month to date snowfall T 0.0  
Since 1 July snowfall T 0.1  
Snow Depth 0.00 in    
Sea Level Pressure  
Sea Level Pressure 30.42 in    
Wind  
Wind Speed 12 mph (North)    
Max Wind Speed 21 mph    
Max Gust Speed 26 mph    
Visibility 6 miles    
Events Snow    
T = Trace of Precipitation, MM = Missing Value Source: NWS Daily Summary

Daily Weather History Graph

Daily Weather History Graph

Search for Another Location

Airport or City:

Trip Planner

Search our weather history database for the weather conditions in past years. The results will help you decide how hot, cold, wet, or windy it might be!

Date:

Astronomy

Dec. 07, 2013 Rise Set
Actual Time 7:15 AM CST 5:25 PM CST
Civil Twilight 6:48 AM CST 5:52 PM CST
Nautical Twilight 6:18 AM CST 6:22 PM CST
Astronomical Twilight 5:49 AM CST 6:51 PM CST
Moon 11:14 AM CST (12/7) 10:53 PM CST (12/7)
Length of Visible Light 11h 03m
Length of Day
10h 09m
Waxing Crescent, 29% of the Moon is Illuminated
Dec 7
Waxing Crescent
Dec 9
First Quarter
Dec 17
Full
Dec 25
Last Quarter
Jan 1
New

Hourly Weather History & Observations

Time (CST) Temp. Windchill Dew Point Humidity Pressure Visibility Wind Dir Wind Speed Gust Speed Precip Events Conditions
12:51 AM 26.1 °F 14.0 °F 21.0 °F 81% 30.49 in 10.0 mi North 15.0 mph - N/A   Overcast
1:51 AM 26.1 °F 13.6 °F 21.0 °F 81% 30.48 in 10.0 mi North 16.1 mph 24.2 mph N/A   Overcast
2:51 AM 25.0 °F 13.1 °F 19.9 °F 81% 30.49 in 10.0 mi North 13.8 mph - N/A   Overcast
3:51 AM 25.0 °F 12.6 °F 19.0 °F 78% 30.49 in 10.0 mi North 15.0 mph 21.9 mph N/A   Overcast
4:51 AM 24.1 °F 12.0 °F 19.0 °F 81% 30.48 in 10.0 mi NNE 13.8 mph - N/A   Overcast
4:58 AM 24.8 °F 11.9 °F 19.4 °F 80% 30.46 in 10.0 mi North 16.1 mph - N/A   Overcast
5:51 AM 24.1 °F 10.1 °F 19.0 °F 81% 30.49 in 10.0 mi North 18.4 mph - N/A   Overcast
6:22 AM 23.0 °F 10.1 °F 19.4 °F 86% 30.49 in 2.5 mi North 15.0 mph - 0.00 in Snow Light Snow
6:51 AM 23.0 °F 10.1 °F 19.0 °F 85% 30.50 in 7.0 mi North 15.0 mph - 0.00 in   Overcast
7:51 AM 23.0 °F 10.1 °F 19.0 °F 85% 30.52 in 10.0 mi North 15.0 mph - N/A   Overcast
8:51 AM 23.0 °F 11.1 °F 19.0 °F 85% 30.54 in 2.0 mi North 12.7 mph - 0.00 in Snow Light Snow
9:51 AM 24.1 °F 12.5 °F 19.0 °F 81% 30.53 in 10.0 mi NNW 12.7 mph - 0.00 in   Overcast
10:51 AM 24.1 °F 12.0 °F 19.0 °F 81% 30.51 in 10.0 mi North 13.8 mph - N/A   Overcast
11:51 AM 25.0 °F 11.7 °F 19.9 °F 81% 30.48 in 10.0 mi North 17.3 mph 21.9 mph N/A   Overcast
12:51 PM 24.1 °F 13.1 °F 19.0 °F 81% 30.44 in 10.0 mi NNW 11.5 mph - N/A   Overcast
1:51 PM 25.0 °F 14.8 °F 19.9 °F 81% 30.42 in 10.0 mi NNW 10.4 mph - N/A   Overcast
2:51 PM 25.0 °F 14.2 °F 19.9 °F 81% 30.39 in 10.0 mi North 11.5 mph - N/A   Overcast
3:51 PM 24.1 °F 13.1 °F 21.0 °F 88% 30.37 in 4.0 mi North 11.5 mph - N/A   Overcast
4:27 PM 24.8 °F 14.0 °F 21.2 °F 86% 30.34 in 6.0 mi North 11.5 mph - N/A   Overcast
4:51 PM 25.0 °F 15.5 °F 21.9 °F 88% 30.36 in 4.0 mi North 9.2 mph - N/A   Overcast
5:17 PM 24.8 °F 16.9 °F 21.2 °F 86% 30.34 in 6.0 mi North 6.9 mph - N/A   Overcast
5:51 PM 25.0 °F 14.2 °F 21.9 °F 88% 30.36 in 5.0 mi North 11.5 mph - N/A   Overcast
6:27 PM 24.8 °F 14.0 °F 23.0 °F 93% 30.34 in 2.5 mi NNW 11.5 mph - N/A   Overcast
6:51 PM 24.1 °F 13.7 °F 23.0 °F 96% 30.37 in 2.5 mi North 10.4 mph - N/A   Overcast
7:29 PM 24.8 °F 14.6 °F 23.0 °F 93% 30.36 in 1.5 mi North 10.4 mph - N/A   Overcast
7:51 PM 25.0 °F 15.5 °F 23.0 °F 92% 30.37 in 1.5 mi North 9.2 mph - N/A   Overcast
8:51 PM 25.0 °F 16.3 °F 23.0 °F 92% 30.38 in 4.0 mi NNW 8.1 mph - N/A   Overcast
8:59 PM 24.8 °F 16.1 °F 23.0 °F 93% 30.35 in 5.0 mi NNW 8.1 mph - N/A   Overcast
9:51 PM 25.0 °F 18.1 °F 23.0 °F 92% 30.36 in 4.0 mi NW 5.8 mph - N/A   Overcast
10:51 PM 25.0 °F 17.1 °F 24.1 °F 96% 30.36 in 3.0 mi NW 6.9 mph - N/A   Overcast
11:09 PM 24.8 °F 16.9 °F 24.8 °F 100% 30.33 in 2.5 mi NNW 6.9 mph - N/A   Overcast
11:51 PM 25.0 °F 20.7 °F 24.1 °F 96% 30.32 in 2.5 mi North 3.5 mph - N/A   Overcast